Weather History for Pittsburg, KS

Change the Weather History Date:

Sunday, January 12, 2014

  Actual Average (KJLN) Record (KJLN)
Temperature  
Mean Temperature 48 °F 34 °F  
Max Temperature 65 °F 44 °F 70 °F (2000)
Min Temperature 30 °F 25 °F -4 °F (1963)
Degree Days  
Heating Degree Days 18 30  
Month to date heating degree days 360  
Since 1 July heating degree days 1977  
Cooling Degree Days 0 0  
Month to date cooling degree days 0  
Year to date cooling degree days 0  
Moisture  
Dew Point 31 °F    
Average Humidity 49    
Maximum Humidity 100    
Minimum Humidity 29    
Precipitation  
Precipitation 0.00 in 0.06 in 1.08 in (2007)
Month to date precipitation 0.82  
Year to date precipitation 0.82  
Sea Level Pressure  
Sea Level Pressure 29.70 in    
Wind  
Wind Speed 14 mph (SSW)    
Max Wind Speed 37 mph    
Max Gust Speed 53 mph    
Visibility 10 miles    
Events      
T = Trace of Precipitation, MM = Missing Value Source: NWS Daily Summary

Daily Weather History Graph

Daily Weather History Graph

Search for Another Location

Airport:

Trip Planner

Search our weather history database for the weather conditions in past years. The results will help you decide how hot, cold, wet, or windy it might be!

Date:

Astronomy

Jan. 12, 2014 Rise Set
Actual Time 7:33 AM CST 5:21 PM CST
Civil Twilight 7:04 AM CST 5:50 PM CST
Nautical Twilight 6:32 AM CST 6:22 PM CST
Astronomical Twilight 6:00 AM CST 6:54 PM CST
Moon 2:49 PM CST (1/12) 4:33 AM CST (1/12)
Length of Visible Light 10h 46m
Length of Day
9h 48m
Waxing Gibbous, 90% of the Moon is Illuminated
Jan 12
Waxing Gibbous
Jan 15
Full
Jan 23
Last Quarter
Jan 30
New
Feb 6
First Quarter

Hourly Weather History & Observations

Time (CST) Temp. Windchill Dew Point Humidity Pressure Visibility Wind Dir Wind Speed Gust Speed Precip Events Conditions
12:15 AM 30.7 °F 26.0 °F 30.7 °F 100% 29.94 in 10.0 mi South 4.6 mph - N/A   Clear
12:35 AM 30.9 °F 26.2 °F 30.0 °F 96% 29.93 in 10.0 mi South 4.6 mph - N/A   Clear
12:55 AM 33.1 °F 28.7 °F 30.7 °F 91% 29.92 in 10.0 mi South 4.6 mph - N/A   Clear
1:15 AM 35.1 °F 31.0 °F 30.0 °F 82% 29.91 in 10.0 mi South 4.6 mph - N/A   Clear
1:35 AM 35.2 °F 31.2 °F 28.6 °F 77% 29.91 in 10.0 mi South 4.6 mph - N/A   Clear
1:55 AM 35.6 °F 30.7 °F 28.2 °F 75% 29.91 in 10.0 mi South 5.8 mph - N/A   Clear
2:15 AM 35.6 °F 30.7 °F 28.4 °F 75% 29.90 in 10.0 mi South 5.8 mph - N/A   Clear
2:35 AM 35.6 °F 29.2 °F 28.4 °F 75% 29.90 in 10.0 mi South 8.1 mph - N/A   Clear
2:55 AM 35.8 °F 28.8 °F 28.2 °F 74% 29.89 in 10.0 mi South 9.2 mph - N/A   Clear
3:15 AM 36.0 °F 29.6 °F 27.7 °F 72% 29.89 in 10.0 mi South 8.1 mph - N/A   Clear
3:35 AM 35.6 °F 29.2 °F 27.5 °F 72% 29.87 in 10.0 mi South 8.1 mph - N/A   Clear
3:55 AM 36.1 °F 29.9 °F 27.9 °F 72% 29.87 in 10.0 mi South 8.1 mph - N/A   Clear
4:15 AM 36.1 °F 29.3 °F 27.9 °F 72% 29.86 in 10.0 mi South 9.2 mph - N/A   Clear
4:35 AM 36.1 °F 29.3 °F 27.9 °F 72% 29.85 in 10.0 mi South 9.2 mph - N/A   Clear
4:55 AM 37.8 °F 30.7 °F 29.1 °F 71% 29.84 in 10.0 mi South 10.4 mph - N/A   Clear
5:15 AM 37.9 °F 31.5 °F 28.6 °F 69% 29.84 in 10.0 mi South 9.2 mph - N/A   Clear
5:35 AM 38.5 °F 31.1 °F 28.8 °F 68% 29.82 in 10.0 mi South 11.5 mph - N/A   Clear
5:55 AM 40.5 °F 33.2 °F 29.1 °F 64% 29.82 in 10.0 mi South 12.7 mph - N/A   Clear
6:15 AM 40.5 °F 34.1 °F 28.8 °F 63% 29.82 in 10.0 mi South 10.4 mph - N/A   Clear
6:35 AM 41.2 °F 35.0 °F 28.6 °F 61% 29.82 in 10.0 mi South 10.4 mph - N/A   Clear
6:55 AM 42.3 °F 35.9 °F 28.0 °F 57% 29.81 in 10.0 mi South 11.5 mph - N/A   Clear
7:15 AM 43.3 °F 35.8 °F 27.9 °F 54% 29.79 in 10.0 mi South 16.1 mph 19.6 mph N/A   Clear
7:35 AM 44.8 °F 37.7 °F 27.5 °F 51% 29.79 in 10.0 mi South 16.1 mph 25.3 mph N/A   Clear
7:55 AM 46.2 °F 38.7 °F 27.9 °F 49% 29.78 in 10.0 mi South 19.6 mph 26.5 mph N/A   Clear
8:15 AM 48.0 °F - 29.1 °F 48% 29.77 in 10.0 mi SSW 19.6 mph 26.5 mph N/A   Clear
8:35 AM 49.6 °F - 29.7 °F 46% 29.77 in 10.0 mi SSW 18.4 mph 31.1 mph N/A   Clear
8:55 AM 50.9 °F - 30.0 °F 45% 29.76 in 10.0 mi SSW 23.0 mph 34.5 mph N/A   Clear
9:15 AM 50.9 °F - 29.8 °F 44% 29.75 in 10.0 mi SSW 26.5 mph 31.1 mph N/A   Clear
9:35 AM 51.1 °F - 29.5 °F 43% 29.75 in 10.0 mi South 25.3 mph 33.4 mph N/A   Clear
9:55 AM 52.9 °F - 30.6 °F 43% 29.75 in 10.0 mi SSW 23.0 mph 32.2 mph N/A   Clear
10:15 AM 55.4 °F - 31.8 °F 41% 29.73 in 10.0 mi SSW 21.9 mph 28.8 mph N/A   Clear
10:35 AM 56.7 °F - 31.8 °F 39% 29.72 in 10.0 mi SSW 18.4 mph 27.6 mph N/A   Clear
10:55 AM 58.3 °F - 32.2 °F 37% 29.70 in 10.0 mi SSW 25.3 mph 32.2 mph N/A   Clear
11:15 AM 59.2 °F - 32.2 °F 36% 29.69 in 10.0 mi SSW 27.6 mph 35.7 mph N/A   Clear
11:35 AM 60.8 °F - 32.9 °F 35% 29.67 in 10.0 mi SSW 25.3 mph 36.8 mph N/A   Clear
11:55 AM 61.3 °F - 33.3 °F 35% 29.66 in 10.0 mi SW 26.5 mph 41.4 mph N/A   Clear
12:15 PM 63.0 °F - 33.3 °F 33% 29.64 in 10.0 mi SW 29.9 mph 42.6 mph N/A   Clear
12:35 PM 62.6 °F - 32.9 °F 33% 29.62 in 10.0 mi SW 25.3 mph 41.4 mph N/A   Clear
12:55 PM 62.4 °F - 32.4 °F 32% 29.61 in 10.0 mi SW 29.9 mph 40.3 mph N/A   Clear
1:15 PM 62.4 °F - 32.4 °F 32% 29.59 in 10.0 mi SW 36.8 mph 52.9 mph N/A   Clear
1:35 PM 63.0 °F - 32.2 °F 32% 29.59 in 10.0 mi SW 32.2 mph 41.4 mph N/A   Clear
1:55 PM 63.5 °F - 32.2 °F 31% 29.57 in 10.0 mi SSW 26.5 mph 43.7 mph N/A   Clear
2:15 PM 64.4 °F - 32.0 °F 30% 29.56 in 10.0 mi SSW 28.8 mph 43.7 mph N/A   Clear
2:35 PM 65.1 °F - 32.0 °F 29% 29.56 in 10.0 mi SSW 33.4 mph 39.1 mph N/A   Clear
2:55 PM 65.8 °F - 33.1 °F 30% 29.56 in 10.0 mi SSW 23.0 mph 35.7 mph N/A   Clear
3:15 PM 65.3 °F - 32.7 °F 30% 29.55 in 10.0 mi SSW 29.9 mph 35.7 mph N/A   Clear
3:35 PM 64.4 °F - 32.2 °F 30% 29.54 in 10.0 mi SSW 32.2 mph 40.3 mph N/A   Clear
3:55 PM 63.9 °F - 31.8 °F 30% 29.53 in 10.0 mi SSW 28.8 mph 38.0 mph N/A   Clear
4:15 PM 63.5 °F - 31.8 °F 31% 29.54 in 10.0 mi SSW 28.8 mph 36.8 mph N/A   Clear
4:35 PM 63.5 °F - 31.8 °F 31% 29.54 in 10.0 mi SSW 24.2 mph 36.8 mph N/A   Clear
4:55 PM 63.5 °F - 32.0 °F 31% 29.54 in 10.0 mi SSW 26.5 mph 36.8 mph N/A   Clear
5:15 PM 62.8 °F - 32.0 °F 32% 29.55 in 10.0 mi SSW 26.5 mph 33.4 mph N/A   Clear
5:35 PM 62.1 °F - 31.8 °F 32% 29.57 in 10.0 mi SW 23.0 mph 32.2 mph N/A   Clear
5:55 PM 61.9 °F - 31.8 °F 32% 29.57 in 10.0 mi SSW 23.0 mph 31.1 mph N/A   Clear
6:15 PM 61.3 °F - 32.0 °F 33% 29.58 in 10.0 mi SW 19.6 mph 29.9 mph N/A   Clear
6:35 PM 61.0 °F - 32.0 °F 34% 29.59 in 10.0 mi SSW 20.7 mph 27.6 mph N/A   Clear
6:55 PM 60.8 °F - 32.5 °F 35% 29.59 in 10.0 mi SSW 18.4 mph 25.3 mph N/A   Clear
7:15 PM 60.4 °F - 33.3 °F 36% 29.59 in 10.0 mi SSW 18.4 mph 24.2 mph N/A   Clear
7:35 PM 58.6 °F - 33.3 °F 38% 29.59 in 10.0 mi SSW 15.0 mph - N/A   Clear
7:55 PM 58.1 °F - 34.3 °F 41% 29.59 in 10.0 mi SSW 12.7 mph - N/A   Clear
8:15 PM 57.2 °F - 34.0 °F 42% 29.59 in 10.0 mi SSW 15.0 mph 19.6 mph N/A   Clear
8:35 PM 57.6 °F - 34.0 °F 41% 29.57 in 10.0 mi SSW 18.4 mph 24.2 mph N/A   Clear
8:55 PM 58.3 °F - 34.2 °F 40% 29.58 in 10.0 mi SSW 19.6 mph 27.6 mph N/A   Clear
9:15 PM 58.3 °F - 34.5 °F 41% 29.57 in 10.0 mi SSW 20.7 mph 26.5 mph N/A   Clear
9:35 PM 58.3 °F - 34.3 °F 41% 29.57 in 10.0 mi SSW 20.7 mph 28.8 mph N/A   Clear
9:55 PM 58.3 °F - 34.3 °F 41% 29.57 in 10.0 mi SSW 20.7 mph 29.9 mph N/A   Clear
10:15 PM 58.3 °F - 34.7 °F 41% 29.59 in 10.0 mi SW 17.3 mph 23.0 mph N/A   Clear
10:35 PM 58.3 °F - 35.8 °F 43% - 10.0 mi WSW 15.0 mph 21.9 mph N/A   Clear
10:55 PM 56.3 °F - 36.0 °F 46% 29.62 in 10.0 mi WSW 10.4 mph - N/A   Clear
11:15 PM 55.8 °F - 36.5 °F 48% 29.62 in 10.0 mi SW 18.4 mph 21.9 mph N/A   Clear
11:35 PM 55.8 °F - 37.0 °F 49% 29.61 in 10.0 mi SW 11.5 mph - N/A   Clear
11:55 PM 55.8 °F - 38.3 °F 52% 29.62 in 10.0 mi SW 13.8 mph 18.4 mph N/A   Clear